Hourly Weather Aboyne

Today, 24 January, Sunday

Time Temperature Precipitation Wind Pressure Humidity
00:00 -6°C° 0 mm 3 mps 718 mmHg 83%
01:00 -6°C° 0 mm 3 mps 718 mmHg 83%
02:00 -6°C° 0 mm 3 mps 718 mmHg 83%
03:00 -6°C° 0 mm 3 mps 718 mmHg 83%
04:00 -6°C° 0 mm 3 mps 718 mmHg 84%
05:00 -5°C° 0 mm 3 mps 718 mmHg 84%
06:00 -5°C° 0 mm 3 mps 718 mmHg 84%
07:00 -5°C° 0 mm 3 mps 718 mmHg 85%
08:00 -6°C° 0 mm 3 mps 718 mmHg 86%
09:00 -5°C° 0 mm 2 mps 719 mmHg 87%
10:00 -4°C° 0 mm 2 mps 719 mmHg 85%
11:00 -3°C° 0 mm 2 mps 719 mmHg 83%
12:00 -1°C° 0 mm 2 mps 720 mmHg 81%
13:00 -2°C° 0 mm 2 mps 720 mmHg 82%
14:00 -2°C° 0 mm 2 mps 720 mmHg 83%
15:00 -2°C° 0 mm 2 mps 720 mmHg 85%
16:00 -3°C° 0 mm 2 mps 721 mmHg 84%
17:00 -4°C° 0 mm 2 mps 721 mmHg 84%
18:00 -5°C° 0 mm 2 mps 721 mmHg 84%
19:00 -4°C° 0 mm 2 mps 721 mmHg 82%
20:00 -4°C° 0 mm 2 mps 722 mmHg 81%
21:00 -4°C° 0 mm 2 mps 722 mmHg 79%
22:00 -3°C° 0.1 mm 2 mps 722 mmHg 82%
23:00 -3°C° 0.1 mm 2 mps 723 mmHg 86%

Tomorrow, 25 January, Monday

Time Temperature Precipitation Wind Pressure Humidity
00:00 -3°C° 0.1 mm 2 mps 723 mmHg 89%
01:00 -3°C° 0 mm 2 mps 723 mmHg 90%
02:00 -4°C° 0 mm 3 mps 723 mmHg 90%
03:00 -4°C° 0 mm 3 mps 724 mmHg 91%
04:00 -4°C° 0 mm 3 mps 724 mmHg 90%
05:00 -4°C° 0 mm 3 mps 724 mmHg 89%
06:00 -5°C° 0 mm 3 mps 724 mmHg 88%
07:00 -4°C° 0 mm 3 mps 725 mmHg 88%
08:00 -4°C° 0 mm 3 mps 725 mmHg 87%
09:00 -4°C° 0 mm 3 mps 725 mmHg 87%
10:00 -2°C° 0 mm 3 mps 726 mmHg 86%
11:00 -2°C° 0 mm 4 mps 726 mmHg 86%
12:00 -1°C° 0 mm 4 mps 727 mmHg 85%
13:00 -1°C° 0 mm 4 mps 727 mmHg 85%
14:00 -1°C° 0 mm 4 mps 727 mmHg 86%
15:00 -1°C° 0 mm 4 mps 728 mmHg 86%
16:00 -2°C° 0 mm 4 mps 728 mmHg 87%
17:00 -3°C° 0 mm 4 mps 728 mmHg 87%
18:00 -4°C° 0 mm 3 mps 729 mmHg 88%
19:00 -4°C° 0 mm 3 mps 729 mmHg 88%
20:00 -4°C° 0 mm 3 mps 730 mmHg 88%
21:00 -5°C° 0 mm 3 mps 730 mmHg 88%
22:00 -5°C° 0 mm 3 mps 730 mmHg 87%
23:00 -5°C° 0 mm 3 mps 730 mmHg 87%

Day after tomorrow, 26 January, Tuesday

Time Temperature Precipitation Wind Pressure Humidity
00:00 -4°C° 0 mm 2 mps 731 mmHg 87%
01:00 -5°C° 0 mm 2 mps 731 mmHg 87%
02:00 -5°C° 0 mm 2 mps 731 mmHg 86%
03:00 -5°C° 0 mm 2 mps 731 mmHg 85%
04:00 -3°C° 0 mm 1 mps 731 mmHg 83%
05:00 -3°C° 0 mm 1 mps 730 mmHg 81%
06:00 -3°C° 0 mm 1 mps 730 mmHg 79%
07:00 -2°C° 0 mm 1 mps 730 mmHg 79%
08:00 -2°C° 0 mm 1 mps 729 mmHg 79%
09:00 -2°C° 0 mm 1 mps 729 mmHg 79%
10:00 -3°C° 0.1 mm 2 mps 728 mmHg 83%
11:00 -2°C° 0.1 mm 2 mps 728 mmHg 87%
12:00 -1°C° 0.1 mm 3 mps 727 mmHg 91%
13:00 -1°C° 0.7 mm 3 mps 726 mmHg 93%
14:00 -2°C° 0.7 mm 4 mps 725 mmHg 95%
15:00 -1°C° 0.7 mm 5 mps 724 mmHg 97%
16:00 -2°C° 0.9 mm 4 mps 724 mmHg 98%
17:00 -1°C° 0.9 mm 3 mps 723 mmHg 98%
18:00 -1°C° 0.9 mm 2 mps 723 mmHg 98%
19:00 -1°C° 0.4 mm 2 mps 724 mmHg 98%
20:00 +1°C° 0.4 mm 1 mps 724 mmHg 98%
21:00 +1°C° 0.4 mm 1 mps 724 mmHg 98%
22:00 +2°C° 0.3 mm 1 mps 725 mmHg 98%
23:00 +2°C° 0.3 mm 1 mps 725 mmHg 98%

27 January, Wednesday

Time Temperature Precipitation Wind Pressure Humidity
00:00 +2°C° 0.3 mm 1 mps 726 mmHg 98%
01:00 +1°C° 0.2 mm 2 mps 726 mmHg 96%
02:00 +1°C° 0.2 mm 2 mps 726 mmHg 95%
03:00 +1°C° 0.2 mm 2 mps 727 mmHg 93%
04:00 +1°C° 0 mm 2 mps 727 mmHg 93%
05:00 +1°C° 0 mm 2 mps 727 mmHg 92%
06:00 +1°C° 0 mm 2 mps 727 mmHg 91%
07:00 0°C° 0 mm 3 mps 727 mmHg 92%
08:00 +1°C° 0 mm 3 mps 727 mmHg 93%
09:00 +1°C° 0 mm 3 mps 727 mmHg 94%
10:00 +1°C° 0 mm 3 mps 727 mmHg 95%
11:00 +2°C° 0 mm 2 mps 727 mmHg 96%
12:00 +2°C° 0 mm 2 mps 727 mmHg 97%
13:00 +2°C° 0.1 mm 2 mps 726 mmHg 97%
14:00 +2°C° 0.1 mm 2 mps 726 mmHg 97%
15:00 +4°C° 0.1 mm 1 mps 725 mmHg 98%
16:00 +3°C° 0 mm 1 mps 725 mmHg 98%
17:00 +2°C° 0 mm 2 mps 724 mmHg 98%
18:00 +2°C° 0 mm 2 mps 723 mmHg 98%
19:00 +3°C° 0.3 mm 2 mps 723 mmHg 98%
20:00 +3°C° 0.3 mm 2 mps 722 mmHg 99%
21:00 +3°C° 0.3 mm 2 mps 721 mmHg 99%
22:00 +3°C° 0.2 mm 2 mps 720 mmHg 99%
23:00 +3°C° 0.2 mm 2 mps 719 mmHg 99%

28 January, Thursday

Time Temperature Precipitation Wind Pressure Humidity
00:00 +4°C° 0.2 mm 2 mps 718 mmHg 99%
01:00 +4°C° 0.2 mm 2 mps 718 mmHg 99%
02:00 +4°C° 0.2 mm 2 mps 717 mmHg 99%
03:00 +5°C° 0.2 mm 1 mps 716 mmHg 99%
04:00 +5°C° 0.1 mm 1 mps 716 mmHg 99%
05:00 +5°C° 0.1 mm 1 mps 716 mmHg 99%
06:00 +5°C° 0.1 mm 1 mps 715 mmHg 99%
07:00 +5°C° 0.3 mm 1 mps 716 mmHg 99%
08:00 +4°C° 0.3 mm 2 mps 716 mmHg 99%
09:00 +4°C° 0.3 mm 2 mps 717 mmHg 99%
10:00 +5°C° 0.2 mm 2 mps 718 mmHg 98%
11:00 +4°C° 0.2 mm 3 mps 719 mmHg 98%
12:00 +4°C° 0.2 mm 4 mps 720 mmHg 97%
13:00 +4°C° 0 mm 4 mps 721 mmHg 95%
14:00 +3°C° 0 mm 3 mps 722 mmHg 94%
15:00 +3°C° 0 mm 3 mps 722 mmHg 92%
16:00 +2°C° 0 mm 3 mps 723 mmHg 90%
17:00 +2°C° 0 mm 2 mps 723 mmHg 89%
18:00 +1°C° 0 mm 2 mps 723 mmHg 87%

29 January, Friday

Time Temperature Precipitation Wind Pressure Humidity
Show more